Temp
0 -0 -1 -0 1 1 2 1 3 2 3 3 3 5 4 7 9 9 10 12 12 12 11 11 12 12 11 11 11 9 10 9 8 9 11 11 11 9 9 7 9 8 9 10
-0 -1 -1 -0 1 2 2 2 2 2 3 4 5 4 5 9 8 9 11 10 12 12 12 10 11 11 11 10 11 11 10 8 8 9 10 11 10 11 11 9 7 7 8 11
-1 -1 -1 -0 1 2 2 1 3 2 2 4 8 5 6 8 8 10 10 10 11 11 11 11 11 10 9 10 10 9 10 9 8 10 10 11 7 8 9 7 7 9 10 11
-0 -0 -0 -0 1 2 2 2 4 4 5 6 7 8 8 8 8 10 10 10 11 11 10 10 10 10 10 9 9 9 9 6 8 9 9 9 9 9 8 6 7 7 10 11
-1 -1 -0 -0 1 3 2 2 3 5 7 9 10 9 9 9 9 10 10 11 11 11 11 11 10 11 10 10 9 9 9 7 6 6 9 9 8 10 9 8 7 7 7 7
-1 -1 -0 0 0 2 1 2 2 3 4 9 10 10 10 10 10 9 10 10 11 10 10 10 10 10 10 10 10 9 8 6 6 8 11 10 9 9 8 7 8 7 7 8
-1 -1 -1 1 1 1 1 1 2 4 5 9 9 9 9 9 10 9 8 9 10 8 8 8 8 8 9 8 8 8 7 5 6 7 8 10 13 11 10 9 10 11 10 10
-1 -1 -1 -0 1 1 1 1 2 2 7 9 9 9 9 9 9 9 8 7 7 7 8 9 9 8 7 9 8 8 9 8 7 7 9 11 12 13 10 8 10 11 9 9
-0 -1 -1 -0 0 1 0 1 2 2 3 9 9 10 9 10 10 9 9 6 7 7 8 8 7 9 11 10 8 8 9 9 7 8 8 10 14 12 10 9 11 11 10 9
0 -0 -2 -1 -0 1 0 0 1 2 2 6 7 9 10 9 10 7 6 6 6 6 8 8 8 8 11 11 11 8 7 7 7 7 8 11 15 12 10 12 12 10 9 9
1 -1 -2 -2 -2 -1 -0 -0 0 1 0 3 5 7 8 8 9 9 7 7 6 7 7 6 7 7 11 10 12 10 10 9 8 8 8 10 13 13 12 12 11 10 9 8
-1 -1 -2 -2 -2 -2 -2 -1 -1 -0 1 2 4 5 6 7 8 9 7 8 8 8 6 6 6 7 10 11 11 12 11 13 13 12 14 15 13 12 12 10 9 9 8 8
-2 -2 -2 -2 -3 -3 -3 -2 -2 -1 0 2 4 6 6 7 7 8 9 7 7 7 7 6 6 7 8 9 11 12 12 13 12 12 15 14 14 12 10 7 7 7 7 7
-2 -2 -2 -2 -3 -3 -3 -2 -2 -2 -1 1 5 5 6 7 7 7 7 7 7 7 6 5 6 6 9 10 10 11 12 11 12 13 14 14 12 10 8 6 6 6 6 6
-2 -3 -3 -3 -3 -3 -2 -2 -2 -1 -1 1 3 5 6 6 6 7 7 6 6 6 6 6 6 7 8 10 9 10 12 13 12 14 13 13 12 8 7 6 5 5 4 4
-3 -3 -3 -3 -3 -3 -3 -1 -0 -1 -2 0 4 5 5 5 6 6 5 5 5 5 6 6 7 7 7 8 10 13 14 13 13 14 11 9 8 7 6 6 5 4 5 5
-2 -3 -3 -3 -3 -3 -3 -1 -1 -1 -1 0 3 5 5 5 5 5 5 5 5 5 5 5 6 7 6 7 9 13 13 12 11 10 9 9 7 8 6 5 5 5 4 4
-1 -3 -2 -1 -2 -2 -2 -2 -1 -1 -0 0 3 6 5 5 5 6 5 5 5 5 5 6 6 6 6 7 10 10 11 11 10 9 9 9 8 7 6 5 5 5 4 3
-1 -0 -1 -1 -1 -1 -1 -1 -1 -1 -0 1 4 5 6 5 5 5 5 5 6 6 6 6 5 7 7 9 10 11 11 9 10 8 7 7 7 5 6 5 4 5 3 3
-1 -1 -1 -1 -2 -1 -1 -0 -0 -0 0 1 4 6 6 5 6 7 7 6 6 6 8 5 5 6 9 10 10 10 9 9 8 6 4 5 5 5 5 5 4 5 5 4
-2 -2 -2 -1 -1 -1 -0 -0 0 1 2 3 5 7 7 5 7 8 6 6 4 6 7 6 7 8 10 8 8 7 7 8 8 8 7 8 8 7 6 4 4 5 5 5
-3 -3 -2 -0 -0 -0 0 2 1 3 4 4 6 6 6 4 5 6 5 5 5 6 5 5 6 8 8 7 7 6 6 6 7 9 8 8 7 7 6 5 5 5 6 5
-2 -3 -2 -2 -0 2 3 3 2 3 1 1 2 4 4 4 4 5 5 5 5 4 5 6 7 8 7 6 5 5 5 5 6 7 8 7 7 6 6 6 6 6 6 5
-3 -3 0 1 1 1 1 1 1 -0 0 0 1 3 4 3 4 5 5 5 5 5 4 6 7 5 5 5 4 5 5 5 5 6 7 7 6 5 5 6 7 7 6 5
-3 -3 1 0 -1 -1 -1 -1 -1 -1 -0 0 2 2 3 3 3 5 4 4 4 5 6 6 4 3 3 3 4 4 4 5 6 6 6 6 5 5 5 5 5 6 6 5
-3 -3 -2 -2 -1 -1 -1 -2 -1 -1 -1 1 1 2 3 3 4 4 4 4 5 6 2 1 1 2 2 2 3 3 3 4 5 5 5 5 4 4 5 4 5 5 5 4
-3 -2 -2 -2 -2 -2 -1 -1 -0 -1 -1 1 1 3 5 1 3 3 4 4 3 -0 -1 -0 1 1 2 3 3 3 2 3 4 5 5 4 3 4 4 4 3 4 4 3
Height
1448 1441 1434 1427 1420 1412 1407 1405 1407 1411 1413 1416 1415 1411 1410 1408 1406 1408 1408 1408 1407 1410 1417 1420 1421 1423 1428 1434 1437 1442 1445 1449 1450 1443 1439 1440 1441 1446 1450 1452 1435 1436 1425 1392
1447 1440 1433 1425 1417 1410 1406 1408 1411 1412 1415 1414 1412 1415 1411 1408 1414 1413 1411 1412 1411 1412 1415 1422 1421 1425 1432 1436 1437 1438 1443 1450 1447 1436 1434 1433 1437 1434 1433 1434 1437 1424 1425 1390
1448 1440 1433 1425 1417 1409 1406 1410 1413 1417 1416 1412 1408 1413 1413 1412 1415 1413 1413 1413 1414 1415 1417 1420 1423 1429 1434 1436 1437 1439 1441 1440 1443 1429 1425 1429 1440 1434 1430 1435 1425 1407 1396 1388
1448 1441 1433 1426 1417 1409 1408 1410 1413 1415 1415 1415 1413 1413 1414 1415 1414 1414 1413 1415 1414 1414 1418 1422 1424 1427 1432 1436 1438 1441 1443 1445 1441 1434 1429 1428 1425 1421 1418 1424 1417 1414 1380 1387
1450 1443 1435 1428 1420 1414 1411 1414 1416 1415 1414 1411 1410 1412 1412 1413 1416 1415 1415 1413 1416 1417 1417 1420 1423 1425 1428 1429 1436 1439 1441 1440 1441 1435 1424 1420 1416 1407 1407 1405 1404 1402 1399 1386
1448 1445 1438 1431 1426 1420 1418 1419 1419 1420 1420 1413 1411 1412 1414 1415 1417 1420 1419 1418 1418 1420 1423 1425 1426 1427 1428 1429 1429 1434 1439 1443 1443 1421 1411 1409 1405 1401 1402 1400 1397 1395 1387 1379
1450 1445 1441 1434 1429 1427 1426 1424 1423 1421 1422 1415 1414 1415 1417 1418 1418 1419 1422 1422 1421 1426 1426 1426 1426 1427 1428 1430 1431 1434 1435 1444 1443 1428 1418 1403 1389 1391 1393 1394 1387 1382 1377 1372
1454 1446 1442 1438 1432 1428 1427 1426 1425 1423 1417 1415 1416 1417 1418 1418 1420 1422 1423 1424 1425 1426 1426 1424 1422 1425 1428 1420 1425 1429 1431 1433 1435 1428 1417 1397 1387 1385 1391 1393 1383 1381 1379 1371
1450 1450 1443 1439 1435 1431 1427 1425 1423 1423 1423 1415 1415 1416 1419 1417 1417 1421 1423 1426 1426 1427 1427 1427 1426 1418 1408 1415 1424 1425 1425 1429 1434 1426 1423 1406 1381 1385 1390 1391 1379 1379 1376 1371
1446 1445 1443 1439 1435 1431 1428 1427 1425 1424 1423 1417 1417 1416 1416 1418 1418 1423 1425 1426 1426 1427 1425 1425 1424 1421 1412 1409 1408 1420 1425 1428 1427 1428 1424 1401 1381 1386 1388 1381 1383 1380 1379 1375
1446 1444 1441 1439 1435 1432 1429 1426 1424 1423 1421 1416 1416 1417 1417 1418 1419 1419 1424 1426 1426 1427 1428 1429 1426 1422 1410 1409 1401 1408 1411 1417 1417 1421 1421 1406 1385 1384 1385 1383 1381 1381 1379 1376
1444 1442 1440 1437 1434 1432 1429 1427 1425 1423 1423 1418 1415 1414 1415 1416 1418 1420 1421 1422 1422 1424 1427 1428 1426 1422 1412 1405 1401 1401 1403 1394 1392 1396 1385 1381 1384 1384 1383 1382 1380 1380 1380 1379
1441 1439 1439 1435 1432 1430 1429 1426 1424 1423 1421 1415 1412 1412 1414 1415 1416 1418 1420 1421 1422 1423 1424 1426 1424 1421 1418 1411 1400 1396 1395 1395 1395 1393 1380 1381 1381 1382 1381 1380 1378 1378 1378 1380
1437 1435 1435 1432 1429 1426 1426 1424 1423 1422 1420 1416 1410 1409 1411 1412 1414 1416 1417 1418 1420 1422 1423 1424 1423 1422 1413 1405 1401 1399 1394 1395 1390 1387 1381 1379 1381 1381 1380 1379 1378 1378 1379 1380
1432 1430 1430 1427 1424 1422 1419 1418 1417 1417 1421 1414 1409 1408 1408 1409 1411 1413 1415 1417 1419 1420 1421 1420 1418 1416 1413 1405 1404 1393 1389 1386 1387 1381 1382 1382 1382 1382 1381 1380 1380 1380 1380 1382
1425 1424 1424 1421 1419 1418 1417 1412 1411 1412 1415 1415 1408 1406 1406 1407 1408 1410 1412 1414 1416 1417 1417 1417 1413 1411 1412 1402 1390 1380 1379 1380 1381 1381 1382 1383 1383 1382 1382 1381 1381 1382 1382 1385
1420 1416 1414 1410 1410 1412 1414 1413 1411 1412 1413 1412 1408 1404 1405 1406 1407 1409 1411 1413 1414 1415 1415 1413 1411 1408 1406 1398 1387 1377 1377 1378 1380 1381 1382 1383 1382 1382 1382 1382 1382 1385 1386 1388
1414 1409 1406 1403 1403 1406 1409 1410 1409 1410 1410 1410 1407 1404 1405 1406 1407 1409 1410 1411 1412 1411 1410 1408 1407 1403 1399 1389 1377 1376 1375 1376 1377 1378 1379 1380 1381 1381 1382 1384 1385 1387 1389 1392
1410 1408 1407 1405 1406 1407 1407 1408 1409 1408 1412 1408 1404 1404 1402 1405 1406 1407 1408 1408 1407 1407 1404 1402 1402 1393 1388 1372 1373 1373 1372 1373 1374 1375 1376 1378 1379 1380 1382 1385 1388 1388 1392 1395
1407 1408 1407 1407 1406 1406 1407 1409 1408 1407 1406 1406 1403 1401 1401 1404 1403 1404 1406 1407 1405 1403 1399 1400 1395 1383 1371 1368 1369 1371 1372 1373 1373 1373 1375 1375 1377 1379 1381 1384 1388 1391 1393 1396
1409 1408 1407 1406 1405 1406 1405 1404 1404 1404 1404 1402 1400 1400 1399 1403 1402 1401 1405 1405 1406 1401 1399 1398 1387 1374 1365 1365 1365 1365 1366 1369 1370 1371 1371 1372 1374 1376 1379 1384 1387 1390 1394 1397
1411 1409 1408 1407 1406 1405 1404 1400 1401 1399 1398 1399 1399 1400 1401 1402 1402 1403 1405 1405 1406 1400 1402 1399 1388 1368 1366 1366 1365 1363 1362 1363 1366 1368 1369 1369 1371 1374 1378 1381 1385 1390 1394 1398
1412 1411 1409 1408 1406 1402 1397 1396 1399 1398 1401 1402 1401 1401 1402 1403 1403 1404 1405 1404 1403 1403 1401 1391 1375 1368 1368 1366 1364 1362 1360 1361 1363 1365 1367 1368 1370 1373 1376 1380 1385 1390 1395 1399
1412 1411 1406 1405 1402 1403 1403 1403 1403 1404 1403 1403 1402 1402 1402 1403 1403 1403 1404 1404 1404 1401 1398 1386 1376 1374 1371 1367 1364 1362 1361 1362 1363 1365 1366 1368 1370 1373 1377 1381 1385 1390 1394 1398
1411 1410 1403 1404 1404 1404 1404 1404 1403 1403 1403 1402 1402 1402 1403 1403 1404 1403 1405 1405 1400 1394 1384 1382 1382 1378 1374 1370 1367 1366 1364 1364 1365 1366 1367 1368 1370 1373 1377 1382 1387 1391 1395 1399
1409 1408 1406 1405 1406 1404 1403 1403 1402 1402 1402 1401 1402 1401 1401 1400 1400 1403 1400 1399 1393 1385 1391 1388 1383 1378 1375 1372 1370 1368 1367 1367 1366 1366 1367 1369 1371 1373 1378 1383 1388 1392 1396 1399
1406 1404 1403 1402 1406 1405 1405 1405 1405 1404 1403 1401 1401 1399 1393 1401 1398 1398 1393 1391 1391 1391 1389 1386 1383 1379 1375 1373 1371 1369 1368 1368 1368 1368 1368 1369 1371 1374 1378 1382 1386 1392 1397 1401
Wind_Speed
31 31 29 28 30 31 12 5 2 9 10 2 2 0 1 10 10 3 3 4 4 15 18 11 12 9 3 8 11 11 9 2 5 12 12 12 14 15 17 8 8 8 13 21
30 31 29 29 32 24 8 4 3 6 6 2 2 1 2 4 9 6 5 4 2 6 12 6 7 6 6 10 12 11 10 4 3 3 2 8 11 18 17 18 15 21 14 14
28 30 28 29 31 23 8 5 3 4 5 4 6 3 3 5 3 5 4 8 8 10 10 3 9 6 4 11 12 7 8 5 8 8 8 11 8 15 17 15 10 19 22 29
27 30 29 29 30 23 8 3 3 2 3 2 4 5 8 6 3 2 3 4 3 5 4 5 4 6 5 5 9 6 5 5 9 18 22 20 20 23 23 19 18 16 28 23
27 28 29 29 29 19 24 6 4 4 1 8 6 1 7 7 5 2 2 2 6 4 4 1 5 6 7 6 9 11 4 4 2 14 20 21 18 23 18 18 18 15 24 29
25 27 27 28 26 24 12 11 8 2 3 6 5 2 5 4 5 3 4 2 5 4 3 3 3 3 4 1 3 10 4 1 2 6 11 20 9 5 6 7 10 11 12 19
23 24 24 26 23 18 16 12 4 4 2 4 3 3 1 5 4 5 4 3 2 5 3 2 4 6 9 8 8 8 5 4 2 6 13 3 6 2 6 10 15 12 16 18
23 22 22 22 21 17 11 15 4 4 3 5 4 6 4 5 4 5 4 4 4 4 3 2 3 1 2 8 11 12 13 5 2 3 6 17 6 3 2 3 8 9 12 13
21 21 20 21 20 17 11 11 10 3 4 5 2 5 5 3 3 3 3 3 1 2 1 1 2 2 1 4 3 1 10 10 4 2 4 5 5 6 3 2 2 14 9 7
21 21 20 19 17 17 13 7 10 2 3 2 3 6 5 4 5 3 2 1 1 3 3 2 2 3 2 3 5 5 4 2 8 7 4 10 7 4 1 4 7 11 6 2
20 20 20 18 17 15 13 8 10 7 4 12 4 9 6 4 7 3 5 3 1 2 1 1 2 2 1 3 2 5 8 6 4 4 4 6 3 2 4 6 9 7 3 4
18 20 19 20 17 15 14 6 7 11 6 8 7 10 12 8 6 1 5 3 3 2 2 3 1 2 3 4 3 4 5 7 2 6 3 6 9 10 11 7 9 7 4 3
18 19 20 20 19 15 12 12 8 9 5 10 7 8 11 11 12 9 4 2 4 3 2 1 1 5 1 3 6 4 6 5 4 4 3 6 12 8 4 6 5 4 3 6
18 18 20 20 21 14 15 13 10 8 6 3 2 7 10 13 13 13 12 4 5 4 4 3 2 3 5 3 4 5 3 4 4 9 14 11 4 5 2 3 3 6 7 7
19 21 20 21 22 17 19 16 15 14 6 3 5 2 8 11 13 14 13 8 6 4 3 3 3 3 4 6 4 9 9 8 6 6 5 5 5 4 3 5 6 7 11 12
20 23 24 24 22 17 12 5 5 6 16 4 2 0 2 6 8 8 7 7 8 7 4 3 4 7 4 3 5 11 15 20 17 10 1 1 2 1 2 6 9 10 13 13
25 27 29 27 23 16 12 4 8 11 12 3 3 1 2 3 4 3 4 5 4 5 3 4 3 4 5 3 9 7 5 7 9 7 5 3 6 3 6 9 13 15 17 17
29 24 13 5 2 5 11 16 7 7 5 3 2 1 3 6 4 4 5 4 6 6 4 3 3 4 3 5 13 17 18 18 9 9 10 8 6 9 12 13 17 20 19 19
23 5 1 4 3 3 4 6 10 7 4 2 2 3 2 7 3 3 6 3 3 4 2 3 2 3 6 10 7 9 8 7 7 11 10 10 9 13 16 18 18 22 21 21
10 2 1 1 1 5 4 6 4 6 4 4 2 2 2 6 4 4 2 3 2 2 1 3 3 5 23 25 22 14 7 7 9 10 10 14 16 17 20 22 19 21 24 25
6 4 2 3 3 6 4 4 4 5 2 4 3 6 1 3 2 2 1 1 0 2 0 2 2 4 3 3 8 10 14 16 15 8 10 14 13 20 23 22 22 24 26 26
7 4 4 1 2 3 3 2 1 3 1 1 1 3 1 1 1 1 1 1 1 3 3 2 3 4 5 8 15 11 11 11 16 14 11 10 15 19 24 27 27 27 27 27
4 2 2 2 1 1 1 1 1 1 5 8 5 0 0 1 1 1 1 2 2 1 2 3 4 8 13 11 13 11 6 8 13 12 11 10 14 20 27 28 28 30 28 27
1 2 2 2 1 1 1 1 1 2 2 9 5 2 0 1 1 0 1 1 2 2 3 4 3 16 18 17 12 8 2 6 8 9 9 12 16 22 25 28 30 31 29 28
3 2 2 2 1 2 1 1 2 2 4 6 1 2 1 1 1 1 1 1 4 4 3 3 17 25 22 19 15 9 4 7 8 9 10 12 16 23 26 28 31 30 29 29
3 3 2 2 2 2 1 2 2 4 7 1 2 1 1 3 2 3 6 3 5 0 3 16 21 23 20 19 16 11 6 7 9 10 10 13 18 24 27 30 31 29 29 27
3 3 5 3 1 2 0 3 2 5 4 0 0 3 3 1 3 3 4 4 2 9 14 17 21 22 21 20 17 12 7 8 10 11 12 15 20 24 29 33 32 30 28 25
Wind_Direction
350 355 355 351 354 349 357 13 90 138 135 83 238 93 24 120 122 15 71 156 160 162 177 182 188 179 83 180 173 187 202 184 244 241 243 227 259 220 224 231 233 242 263 269
354 353 356 355 2 4 12 65 70 149 165 157 131 33 307 151 158 188 157 145 178 140 163 174 190 190 114 173 176 169 165 211 284 229 172 243 242 245 248 239 263 253 263 261
356 355 359 358 8 8 109 107 125 115 250 277 130 122 29 107 91 80 91 111 130 140 169 26 178 156 156 184 201 81 183 220 237 267 300 319 257 257 260 256 247 260 247 266
356 357 2 5 12 24 97 65 80 85 147 182 161 172 159 145 129 74 140 125 164 161 153 180 164 172 150 174 187 180 216 241 259 266 276 280 273 273 270 259 256 252 271 278
357 359 5 9 16 44 50 58 27 13 140 179 173 146 138 141 116 168 174 197 158 156 151 144 167 198 210 215 173 203 213 263 311 279 268 260 270 278 279 266 255 252 260 265
359 360 7 10 23 39 46 37 35 297 323 214 205 111 128 125 138 56 45 108 150 161 57 9 360 262 307 5 197 198 201 260 287 270 316 310 274 273 266 263 249 260 262 262
360 1 6 6 18 35 45 26 9 309 131 194 182 128 138 182 51 93 114 107 74 59 56 327 269 253 263 235 237 244 192 155 247 295 307 268 7 113 274 269 282 285 295 275
355 1 1 0 7 18 28 21 41 339 160 182 172 159 111 145 147 76 101 62 48 324 316 292 300 144 223 236 221 217 228 210 265 277 309 274 295 352 327 340 311 10 321 325
356 348 348 351 359 2 14 8 16 17 313 200 196 212 205 203 166 172 147 93 24 4 306 229 274 259 238 167 133 249 225 220 219 312 306 298 2 36 134 164 66 19 18 313
350 347 348 347 349 350 357 338 5 338 293 289 284 217 225 202 193 68 113 86 345 185 218 239 236 263 340 242 197 168 151 178 228 243 260 274 301 11 199 301 356 353 5 273
339 344 344 345 339 339 342 328 334 3 315 286 275 236 224 181 191 187 144 178 197 153 170 235 230 267 273 273 224 177 181 185 200 189 233 270 45 279 321 347 325 320 290 156
331 332 335 337 338 340 337 309 317 318 278 265 290 236 221 227 226 248 175 348 123 131 170 214 286 261 271 280 270 216 237 221 307 217 224 331 315 284 311 316 299 294 256 198
327 326 322 321 329 326 321 307 309 313 283 285 269 226 227 224 222 231 217 207 187 206 173 31 271 257 209 262 241 267 231 225 242 306 172 299 305 299 318 325 297 264 207 167
317 316 310 311 314 312 306 296 278 267 273 270 260 216 211 223 221 208 215 222 199 222 220 204 248 255 224 257 303 280 334 165 246 261 277 294 75 21 15 22 66 116 118 135
320 315 307 304 305 309 301 284 267 238 230 299 277 260 221 217 219 225 235 227 218 205 206 219 223 231 255 238 286 256 218 230 222 275 8 321 0 3 50 102 106 120 133 126
320 313 302 294 296 296 300 303 255 221 202 260 274 318 200 210 207 211 221 217 218 214 212 231 241 230 229 259 248 254 242 237 253 275 41 354 293 235 116 125 127 131 135 140
320 315 305 292 282 261 219 237 129 175 190 237 272 188 166 155 141 170 200 218 210 213 231 226 246 251 237 251 248 268 297 265 242 232 238 243 217 218 163 147 137 135 129 133
329 323 323 335 128 185 223 240 231 210 199 229 268 149 176 171 155 182 190 194 209 225 237 226 227 238 235 253 240 254 260 247 247 235 227 233 202 169 159 156 146 138 133 137
336 319 73 103 100 137 180 183 242 220 210 279 237 167 177 174 171 180 185 223 231 214 245 220 235 200 225 241 270 280 268 227 261 209 215 206 188 175 167 160 155 147 144 148
333 301 342 53 215 155 183 208 209 199 220 232 258 254 147 180 154 182 195 197 277 269 225 303 241 255 252 258 265 275 283 225 237 192 196 191 192 184 175 173 167 163 156 154
6 14 350 335 183 161 210 207 192 181 218 212 225 226 146 204 179 188 292 194 239 262 75 280 277 266 288 311 318 297 250 236 243 241 228 216 213 192 180 172 173 170 165 165
319 321 327 336 265 235 234 194 207 218 94 53 284 114 199 132 184 252 207 216 210 258 340 288 261 260 300 314 316 306 292 227 227 229 223 227 212 198 185 180 177 173 172 168
306 297 279 259 230 271 314 99 46 76 3 5 12 104 154 171 181 84 214 214 247 291 255 245 246 308 320 329 326 323 305 207 204 210 210 203 189 189 192 182 179 177 172 170
254 281 257 274 145 119 55 18 3 335 343 351 340 313 49 41 127 84 217 70 291 257 247 250 316 342 334 337 339 341 317 197 192 195 197 192 188 186 187 187 179 176 173 173
229 245 249 245 114 201 245 322 327 17 349 354 306 254 199 99 91 177 91 227 247 236 259 353 341 335 340 343 344 338 284 216 209 201 195 190 188 187 184 183 179 179 176 173
219 208 171 208 254 208 5 21 322 350 330 329 214 250 158 226 178 174 209 221 232 55 337 319 330 332 338 339 339 333 294 237 218 208 201 190 186 185 182 179 180 179 180 179
222 208 197 137 304 263 346 336 329 326 310 216 300 203 198 81 189 228 197 218 336 321 320 332 337 334 334 334 331 328 300 252 234 221 204 191 188 185 181 178 179 181 180 179